TimeEST,TemperatureF,Dew PointF,Humidity,Sea Level PressureIn,VisibilityMPH,Wind Direction,Wind SpeedMPH,Gust SpeedMPH,PrecipitationIn,Events,Conditions,WindDirDegrees,DateUTC
12:53 AM,30.0,25.0,82,30.48,7.0,Calm,Calm,-,N/A,,Clear,0,2011-11-06 04:53:00
1:53 AM,30.0,25.0,82,30.48,8.0,Calm,Calm,-,N/A,,Clear,0,2011-11-06 05:53:00
1:53 AM,28.0,24.1,85,30.48,7.0,Calm,Calm,-,N/A,,Clear,0,2011-11-06 06:53:00
2:53 AM,27.0,24.1,89,30.48,7.0,Calm,Calm,-,N/A,,Clear,0,2011-11-06 07:53:00
3:53 AM,27.0,23.0,85,30.48,7.0,Calm,Calm,-,N/A,,Clear,0,2011-11-06 08:53:00
4:53 AM,26.1,23.0,88,30.50,8.0,Calm,Calm,-,N/A,,Clear,0,2011-11-06 09:53:00
5:53 AM,26.1,23.0,88,30.51,8.0,Calm,Calm,-,N/A,,Clear,0,2011-11-06 10:53:00
6:53 AM,26.1,23.0,88,30.51,6.0,Calm,Calm,-,N/A,,Clear,0,2011-11-06 11:53:00
7:53 AM,30.0,26.1,85,30.54,8.0,Calm,Calm,-,N/A,,Clear,0,2011-11-06 12:53:00
8:53 AM,36.0,30.0,79,30.53,9.0,Calm,Calm,-,N/A,,Clear,0,2011-11-06 13:53:00
9:53 AM,43.0,30.9,62,30.53,10.0,Calm,Calm,-,N/A,,Clear,0,2011-11-06 14:53:00
10:53 AM,48.9,33.1,54,30.52,10.0,Variable,3.5,-,N/A,,Clear,0,2011-11-06 15:53:00
11:53 AM,53.1,35.1,50,30.48,10.0,South,9.2,-,N/A,,Clear,190,2011-11-06 16:53:00
12:53 PM,55.0,36.0,49,30.45,10.0,South,9.2,-,N/A,,Clear,180,2011-11-06 17:53:00
1:53 PM,55.9,37.0,49,30.42,10.0,Variable,3.5,-,N/A,,Clear,0,2011-11-06 18:53:00
2:53 PM,57.0,36.0,45,30.40,10.0,SSE,6.9,-,N/A,,Clear,150,2011-11-06 19:53:00
3:53 PM,55.9,37.0,49,30.40,10.0,SE,8.1,-,N/A,,Clear,140,2011-11-06 20:53:00
4:53 PM,52.0,37.0,57,30.39,10.0,SSE,4.6,-,N/A,,Clear,160,2011-11-06 21:53:00
5:53 PM,48.0,36.0,63,30.39,10.0,Calm,Calm,-,N/A,,Clear,0,2011-11-06 22:53:00
6:53 PM,44.1,36.0,73,30.40,10.0,Calm,Calm,-,N/A,,Clear,0,2011-11-06 23:53:00
7:53 PM,39.2,35.6,87,30.38,10.0,Calm,Calm,-,N/A,,Clear,0,2011-11-07 00:53:00
8:53 PM,39.0,34.0,82,30.40,10.0,Calm,Calm,-,N/A,,Clear,0,2011-11-07 01:53:00
9:53 PM,39.0,35.1,86,30.40,10.0,Calm,Calm,-,N/A,,Clear,0,2011-11-07 02:53:00
10:53 PM,35.1,32.0,89,30.39,10.0,Calm,Calm,-,N/A,,Clear,0,2011-11-07 03:53:00